NC4CB Oriental NC US current weather conditions

sailwx.info

Wind from 288 at 0 knots gusting 5

Air temperature 14.4° C
Dewpoint 13.8° C

Last reported at 2020-Jan-25 12:57 UTC.
Time now 2020-Jan-25 13:24 UTC

Location: N 35°01' W 076°42'.
View on Google Maps.

See reports from other nearby stations

  
Tides and Currents Weather Stations Pressure Air Temp Water Temp Dewpoint Dewpoint Depression Visibility Wind Speed Wind Dir Waves Ship Positions
date/time (UTC)wind fromknots sea level pressurealtimeterstation pressurevisibilityair tempwater tempwave heightnotes
2020-Jan-25 13:07 333 14.4
2020-Jan-25 12:57 288 0 gusting 5 14.4
2020-Jan-25 12:47 331 0 gusting 5 14.4
2020-Jan-25 12:37 297 1 gusting 5 15.0
2020-Jan-25 12:27 006 1 gusting 6 15.6
2020-Jan-25 12:17 255 1 gusting 6 15.6
2020-Jan-25 12:07 266 1 gusting 5 15.6
2020-Jan-25 11:56 259 0 gusting 3 15.6
2020-Jan-25 11:47 179 1 gusting 6 15.6
2020-Jan-25 11:37 165 2 gusting 10 15.6
2020-Jan-25 11:27 179 3 gusting 12 15.6
2020-Jan-25 11:17 193 6 gusting 15 15.6
2020-Jan-25 11:06 186 6 gusting 15 15.6
2020-Jan-25 10:56 212 6 gusting 15 16.1
2020-Jan-25 10:46 195 6 gusting 11 16.1
2020-Jan-25 10:36 174 6 gusting 17 16.1
2020-Jan-25 10:26 160 7 gusting 17 16.7
2020-Jan-25 10:16 164 6 gusting 13 16.7
2020-Jan-25 10:06 162 4 gusting 10 16.7
2020-Jan-25 09:56 188 2 gusting 8 16.1
2020-Jan-25 09:46 212 1 gusting 5 16.1
2020-Jan-25 09:37 141 1 gusting 5 16.1
2020-Jan-25 09:27 227 1 gusting 9 16.1
2020-Jan-25 09:17 113 2 gusting 9 16.1
2020-Jan-25 09:07 212 3 gusting 7 16.1
2020-Jan-25 08:56 160 2 gusting 9 15.6
2020-Jan-25 08:46 154 0 gusting 9 15.0
2020-Jan-25 08:36 143 0 gusting 6 15.0
2020-Jan-25 08:26 154 0 gusting 5 15.6
2020-Jan-25 08:15 136 0 gusting 3 15.0
2020-Jan-25 08:05 164 1 gusting 7 15.6
2020-Jan-25 07:55 161 1 gusting 9 15.6
2020-Jan-25 07:45 159 1 gusting 9 15.6
2020-Jan-25 07:35 202 2 gusting 6 15.0
2020-Jan-25 07:25 171 1 gusting 6 15.0
2020-Jan-25 07:15 153 1 gusting 7 15.0
2020-Jan-25 07:05 158 2 gusting 7 15.0
2020-Jan-25 06:54 212 1 gusting 6 15.0
2020-Jan-25 06:44 194 1 gusting 6 14.4
2020-Jan-25 06:34 181 0 gusting 5 14.4
2020-Jan-25 06:24 156 1 gusting 6 14.4
2020-Jan-25 06:14 176 1 gusting 6 14.4
2020-Jan-25 06:04 150 0 gusting 3 14.4
2020-Jan-25 05:54 141 13.9
2020-Jan-25 05:43 153 13.9
2020-Jan-25 05:33 161 13.9
2020-Jan-25 05:23 155 13.3
2020-Jan-25 05:13 118 13.3
2020-Jan-25 05:03 118 13.3
2020-Jan-25 04:53 118 13.9
2020-Jan-25 04:42 155 13.9
2020-Jan-25 04:32 144 13.9
2020-Jan-25 04:23 222 13.9
2020-Jan-25 04:12 198 0 gusting 2 13.9
2020-Jan-25 04:02 150 13.9
2020-Jan-25 03:52 150 0 gusting 4 13.9
2020-Jan-25 03:42 167 13.9
2020-Jan-25 03:32 162 13.3
2020-Jan-25 03:23 163 12.8
2020-Jan-25 03:12 163 12.8
2020-Jan-25 03:02 165 12.2
2020-Jan-25 02:53 153 11.7
2020-Jan-25 02:43 166 11.7
2020-Jan-25 02:33 166 11.1
2020-Jan-25 02:22 166 11.7
2020-Jan-25 02:12 166 11.7
2020-Jan-25 02:02 166 11.7
2020-Jan-25 01:52 166 11.7
2020-Jan-25 01:42 166 11.1
2020-Jan-25 01:32 166 11.1
2020-Jan-25 01:21 202 11.1
2020-Jan-25 01:11 203 11.1
2020-Jan-25 01:01 167 11.7
2020-Jan-25 00:51 091 11.7
2020-Jan-25 00:41 100 11.7
2020-Jan-25 00:31 137 12.2
2020-Jan-25 00:21 124 11.7
2020-Jan-25 00:10 094 12.2
2020-Jan-25 00:01 100 12.2
2020-Jan-24 23:50 100 12.2
2020-Jan-24 23:40 100 12.2
2020-Jan-24 23:30 106 12.2
2020-Jan-24 23:20 106 12.2
2020-Jan-24 23:10 110 12.2
2020-Jan-24 23:00 110 12.2
2020-Jan-24 22:50 110 12.2
2020-Jan-24 22:39 114 12.2
2020-Jan-24 22:29 113 12.2
2020-Jan-24 22:19 113 12.2
2020-Jan-24 22:09 113 12.2
2020-Jan-24 21:59 114 12.2
2020-Jan-24 21:49 117 1 gusting 5 12.2
2020-Jan-24 21:39 143 1 gusting 5 12.8
2020-Jan-24 21:29 104 0 gusting 5 13.3
2020-Jan-24 21:19 099 0 gusting 5 13.3
2020-Jan-24 21:09 124 0 gusting 3 13.9
2020-Jan-24 20:59 107 0 gusting 4 13.9
2020-Jan-24 20:49 123 0 gusting 4 13.9
2020-Jan-24 20:39 110 0 gusting 4 14.4
2020-Jan-24 20:29 108 1 gusting 4 15.0
2020-Jan-24 20:19 093 1 gusting 4 14.4
2020-Jan-24 20:09 096 0 gusting 3 14.4
2020-Jan-24 19:59 120 0 gusting 3 14.4
2020-Jan-24 19:49 094 0 gusting 3 14.4
2020-Jan-24 19:39 105 1 gusting 4 14.4
2020-Jan-24 19:28 121 1 gusting 4 13.9
2020-Jan-24 19:18 153 1 gusting 5 14.4
2020-Jan-24 19:08 112 1 gusting 5 14.4
2020-Jan-24 18:58 099 0 gusting 3 14.4
2020-Jan-24 18:48 110 1 gusting 3 14.4
2020-Jan-24 18:38 120 1 gusting 6 14.4
2020-Jan-24 18:28 096 1 gusting 6 14.4
2020-Jan-24 18:18 096 2 gusting 6 15.0
2020-Jan-24 18:08 099 1 gusting 5 15.0
2020-Jan-24 17:59 108 0 gusting 4 14.4
2020-Jan-24 17:49 088 0 gusting 3 14.4
2020-Jan-24 17:39 096 0 gusting 3 13.9
2020-Jan-24 17:29 087 0 gusting 3 14.4
2020-Jan-24 17:18 110 0 gusting 3 14.4
2020-Jan-24 17:09 086 1 gusting 6 14.4
2020-Jan-24 16:59 108 1 gusting 6 14.4
2020-Jan-24 16:49 096 1 gusting 4 15.0
2020-Jan-24 16:39 091 1 gusting 4 14.4
2020-Jan-24 16:29 080 14.4
2020-Jan-24 16:19 057 13.9
2020-Jan-24 16:08 058 13.9
2020-Jan-24 15:58 083 0 gusting 4 14.4
2020-Jan-24 15:48 086 0 gusting 4 14.4
2020-Jan-24 15:39 080 14.4
2020-Jan-24 15:28 111 13.9
2020-Jan-24 15:18 113 14.4
2020-Jan-24 15:08 135 13.9
2020-Jan-24 14:58 075 13.9
2020-Jan-24 14:48 015 13.3
2020-Jan-24 14:38 018 0 gusting 1 12.8
2020-Jan-24 14:28 343 0 gusting 1 12.2
2020-Jan-24 14:17 335 11.1
2020-Jan-24 14:07 327 11.1
2020-Jan-24 13:57 328 10.6
2020-Jan-24 13:47 328 10.0
2020-Jan-24 13:36 328 10.0
2020-Jan-24 13:26 324 10.0
2020-Jan-24 13:16 324 9.4
2020-Jan-24 13:07 324 8.9
2020-Jan-24 12:57 324 9.4
2020-Jan-24 12:47 324 8.9
2020-Jan-24 12:37 324 8.9
2020-Jan-24 12:27 325 8.9
2020-Jan-24 12:16 325 8.9
2020-Jan-24 12:06 325 8.9
2020-Jan-24 11:57 326 8.9
2020-Jan-24 11:47 031 8.9
2020-Jan-24 11:37 032 8.9
2020-Jan-24 11:27 007 0 gusting 1 8.9
2020-Jan-24 11:16 340 0 gusting 1 8.9
2020-Jan-24 11:06 356 8.9
2020-Jan-24 10:56 002 0 gusting 4 8.9
2020-Jan-24 10:45 023 1 gusting 4 8.9
2020-Jan-24 10:36 040 0 gusting 3 8.9
2020-Jan-24 10:25 348 0 gusting 2 8.9
2020-Jan-24 10:15 012 1 gusting 3 8.9
2020-Jan-24 10:05 008 1 gusting 3 8.9
2020-Jan-24 09:55 332 0 gusting 2 8.9
2020-Jan-24 09:45 001 0 gusting 1 8.9
2020-Jan-24 09:35 345 0 gusting 1 8.9
2020-Jan-24 09:26 016 8.9
2020-Jan-24 09:16 359 0 gusting 4 8.9
2020-Jan-24 09:06 030 1 gusting 2 8.9
2020-Jan-24 08:56 013 8.9
2020-Jan-24 08:46 347 0 gusting 1 8.9
2020-Jan-24 08:36 013 8.9
2020-Jan-24 08:25 013 0 gusting 1 8.9
2020-Jan-24 08:15 333 0 gusting 1 9.4
2020-Jan-24 08:05 345 0 gusting 1 9.4
2020-Jan-24 07:55 338 1 gusting 1 9.4
2020-Jan-24 07:45 351 0 gusting 1 9.4
2020-Jan-24 07:35 338 0 gusting 4 9.4
2020-Jan-24 07:25 011 2 gusting 4 8.9
2020-Jan-24 07:15 056 1 gusting 4 9.4
2020-Jan-24 07:05 031 9.4
2020-Jan-24 06:55 339 0 gusting 0 9.4
2020-Jan-24 06:45 340 9.4
2020-Jan-24 06:35 340 0 gusting 1 10.0
2020-Jan-24 06:25 344 0 gusting 2 10.0
2020-Jan-24 06:14 348 0 gusting 2 10.0
2020-Jan-24 06:05 010 1 gusting 3 10.0
2020-Jan-24 05:54 004 1 gusting 4 10.6
2020-Jan-24 05:44 043 2 gusting 4 10.6
2020-Jan-24 05:34 039 1 gusting 3 10.6
2020-Jan-24 05:24 039 0 gusting 3 10.0
2020-Jan-24 05:14 033 1 gusting 4 10.0
2020-Jan-24 05:04 039 2 gusting 4 10.0
2020-Jan-24 04:53 022 2 gusting 4 10.6
2020-Jan-24 04:44 017 1 gusting 3 10.6
2020-Jan-24 04:34 044 1 gusting 3 10.6
2020-Jan-24 04:24 048 1 gusting 4 10.6
2020-Jan-24 04:14 070 1 gusting 4 10.6
2020-Jan-24 04:05 038 1 gusting 2 10.6
2020-Jan-24 03:55 037 0 gusting 2 10.6
2020-Jan-24 03:45 020 0 gusting 1 10.6
2020-Jan-24 03:35 060 10.6
2020-Jan-24 03:24 041 0 gusting 3 10.6
2020-Jan-24 03:14 030 0 gusting 2 10.6
2020-Jan-24 03:04 051 0 gusting 4 11.1
2020-Jan-24 02:54 037 1 gusting 7 11.1
2020-Jan-24 02:44 060 2 gusting 7 11.1
2020-Jan-24 02:33 017 3 gusting 5 10.6
2020-Jan-24 02:23 034 1 gusting 4 10.6
2020-Jan-24 02:13 034 2 gusting 4 10.6
2020-Jan-24 02:03 032 2 gusting 5 10.6
2020-Jan-24 01:53 013 2 gusting 5 10.6
2020-Jan-24 01:43 358 3 gusting 9 11.1
2020-Jan-24 01:32 049 3 gusting 9 11.1
2020-Jan-24 01:22 029 3 gusting 8 11.1
2020-Jan-24 01:12 030 5 gusting 8 11.1
2020-Jan-24 01:03 050 4 gusting 7 11.1
2020-Jan-24 00:52 056 4 gusting 7 11.1
2020-Jan-24 00:43 065 4 gusting 7 11.1
2020-Jan-24 00:32 033 4 gusting 7 11.1
2020-Jan-24 00:22 027 3 gusting 6 11.1
2020-Jan-24 00:12 034 3 gusting 6 11.1
2020-Jan-24 00:02 027 3 gusting 7 11.1
2020-Jan-23 23:52 052 4 gusting 7 11.1
2020-Jan-23 23:42 032 4 gusting 7 11.7
2020-Jan-23 23:32 031 3 gusting 6 11.7
2020-Jan-23 23:21 036 4 gusting 8 11.7
2020-Jan-23 23:11 060 4 gusting 8 11.7
2020-Jan-23 23:01 004 4 gusting 8 11.7
2020-Jan-23 22:51 034 4 gusting 8 12.2
2020-Jan-23 22:41 032 4 gusting 9 12.2
2020-Jan-23 22:31 039 4 gusting 9 12.2
2020-Jan-23 22:21 041 5 gusting 7 12.8
2020-Jan-23 22:11 041 5 gusting 11 12.8
2020-Jan-23 22:00 026 5 gusting 11 12.8
2020-Jan-23 21:51 348 5 gusting 9 12.8
2020-Jan-23 21:41 018 5 gusting 9 13.3
2020-Jan-23 21:30 019 4 gusting 8 13.3
2020-Jan-23 21:20 032 4 gusting 8 13.3
2020-Jan-23 21:10 035 5 gusting 10 13.9
2020-Jan-23 21:01 041 5 gusting 10 13.9
2020-Jan-23 20:51 353 5 gusting 8 13.9
2020-Jan-23 20:41 033 4 gusting 8 13.9
2020-Jan-23 20:31 043 4 gusting 10 13.9
2020-Jan-23 20:21 036 3 gusting 10 13.9
2020-Jan-23 20:11 045 2 gusting 9 13.9
2020-Jan-23 20:01 088 5 gusting 9 14.4
2020-Jan-23 19:51 078 4 gusting 8 14.4
2020-Jan-23 19:41 041 4 gusting 10 14.4
2020-Jan-23 19:31 068 5 gusting 10 14.4
2020-Jan-23 19:21 025 4 gusting 9 14.4
2020-Jan-23 19:10 070 4 gusting 9 14.4
2020-Jan-23 19:00 019 3 gusting 10 14.4
2020-Jan-23 18:50 074 4 gusting 10 14.4
2020-Jan-23 18:40 076 3 gusting 8 14.4
2020-Jan-23 18:30 020 4 gusting 12 13.9
2020-Jan-23 18:20 072 5 gusting 12 13.9
2020-Jan-23 18:10 038 4 gusting 10 13.9
2020-Jan-23 18:00 067 4 gusting 9 13.9
2020-Jan-23 17:50 041 4 gusting 12 13.9
2020-Jan-23 17:40 070 6 gusting 12 13.9
2020-Jan-23 17:30 061 4 gusting 9 13.9
2020-Jan-23 17:20 057 3 gusting 9 13.3
2020-Jan-23 17:10 051 4 gusting 8 13.3
2020-Jan-23 17:00 038 3 gusting 6 12.8
2020-Jan-23 16:50 025 4 gusting 6 11.7
2020-Jan-23 16:40 048 3 gusting 6 11.1
2020-Jan-23 16:30 024 4 gusting 7 11.1
2020-Jan-23 16:20 357 4 gusting 7 10.6
2020-Jan-23 16:10 317 4 gusting 9 10.6
2020-Jan-23 16:00 056 4 gusting 9 10.6
2020-Jan-23 15:51 352 4 gusting 7 10.0
2020-Jan-23 15:41 025 5 gusting 9 10.0
2020-Jan-23 15:31 018 5 gusting 9 9.4
2020-Jan-23 15:20 035 5 gusting 7 8.9
2020-Jan-23 15:10 036 4 gusting 9 8.9
2020-Jan-23 15:00 041 5 gusting 9 8.3
2020-Jan-23 14:50 059 5 gusting 8 8.3
2020-Jan-23 14:40 354 5 gusting 8 7.8
2020-Jan-23 14:30 023 5 gusting 7 7.8
2020-Jan-23 14:20 027 4 gusting 7 7.2
2020-Jan-23 14:10 042 4 gusting 6 6.7
2020-Jan-23 14:00 021 3 gusting 8 6.7
2020-Jan-23 13:51 067 4 gusting 8 6.1
2020-Jan-23 13:40 046 1 gusting 9 5.6
2020-Jan-23 13:30 354 4 gusting 9 5.0
2020-Jan-23 13:20 347 3 gusting 6 5.0
2020-Jan-23 13:10 007 2 gusting 5 4.4